Weather History for Clarksville, TX

Change the Weather History Date:

Wednesday, January 22, 2014

  Actual Average (KPRX) Record (KPRX)
Temperature  
Mean Temperature 38 °F -  
Max Temperature 54 °F 52 °F 75 °F (2009)
Min Temperature 23 °F 33 °F 23 °F (2011)
Degree Days  
Heating Degree Days 26    
Moisture  
Dew Point 17 °F    
Average Humidity 43    
Maximum Humidity 75    
Minimum Humidity 24    
Precipitation  
Precipitation 0.00 in - - ()
Sea Level Pressure  
Sea Level Pressure 30.16 in    
Wind  
Wind Speed 1 mph (NE)    
Max Wind Speed 9 mph    
Max Gust Speed -    
Visibility 10 miles    
Events      
Averages and records for this station are not official NWS values.
T = Trace of Precipitation, MM = Missing Value Source: NWS Daily Summary

Daily Weather History Graph

Daily Weather History Graph

Search for Another Location

Airport:

Trip Planner

Search our weather history database for the weather conditions in past years. The results will help you decide how hot, cold, wet, or windy it might be!

Date:

Astronomy

Jan. 22, 2014 Rise Set
Actual Time 7:22 AM CST 5:41 PM CST
Civil Twilight 6:55 AM CST 6:08 PM CST
Nautical Twilight 6:25 AM CST 6:38 PM CST
Astronomical Twilight 5:55 AM CST 7:08 PM CST
Moon 11:53 PM CST (1/22) 10:43 AM CST (1/22)
Length of Visible Light 11h 12m
Length of Day
10h 19m
Waning Gibbous, 65% of the Moon is Illuminated
Jan 22
Waning Gibbous
Jan 23
Last Quarter
Jan 30
New
Feb 6
First Quarter
Feb 14
Full

Hourly Weather History & Observations

Time (CST) Temp. Windchill Dew Point Humidity Pressure Visibility Wind Dir Wind Speed Gust Speed Precip Events Conditions
12:15 AM 28.0 °F - 13.8 °F 55% 30.22 in 10.0 mi Calm Calm - N/A   Clear
12:35 AM 29.1 °F 25.4 °F 12.2 °F 49% 30.21 in 10.0 mi ENE 3.5 mph - N/A   Clear
12:55 AM 29.7 °F - 12.7 °F 49% 30.20 in 10.0 mi Calm Calm - N/A   Clear
1:15 AM 30.6 °F - 10.4 °F 43% 30.19 in 10.0 mi Calm Calm - N/A   Clear
1:35 AM 30.2 °F - 10.6 °F 44% 30.19 in 10.0 mi Calm Calm - N/A   Clear
1:55 AM 29.3 °F - 11.1 °F 47% 30.19 in 10.0 mi Calm Calm - N/A   Clear
2:15 AM 26.8 °F - 15.1 °F 61% 30.19 in 10.0 mi Calm Calm - N/A   Clear
2:35 AM 26.8 °F - 15.8 °F 63% 30.19 in 10.0 mi Calm Calm - N/A   Clear
2:55 AM 26.6 °F - 14.4 °F 60% 30.18 in 10.0 mi Calm Calm - N/A   Clear
3:15 AM 27.0 °F - 13.8 °F 58% 30.17 in 10.0 mi Calm Calm - N/A   Clear
3:55 AM 26.1 °F - 14.2 °F 61% 30.17 in 10.0 mi Calm Calm - N/A   Clear
4:15 AM 25.5 °F - 15.1 °F 65% 30.16 in 10.0 mi Calm Calm - N/A   Clear
4:35 AM 26.1 °F - 14.0 °F 60% 30.16 in 10.0 mi Calm Calm - N/A   Clear
4:55 AM 25.0 °F - 15.3 °F 67% 30.16 in 10.0 mi Calm Calm - N/A   Clear
5:15 AM 25.5 °F - 14.0 °F 62% 30.15 in 10.0 mi Calm Calm - N/A   Clear
5:35 AM 26.4 °F - 13.1 °F 57% 30.15 in 10.0 mi Calm Calm - N/A   Clear
5:55 AM 23.4 °F - 16.3 °F 75% 30.16 in 10.0 mi Calm Calm - N/A   Clear
6:15 AM 26.6 °F - 12.9 °F 56% 30.15 in 10.0 mi Calm Calm - N/A   Clear
6:35 AM 26.6 °F - 12.2 °F 55% 30.15 in 10.0 mi Calm Calm - N/A   Clear
6:55 AM 23.2 °F - 15.4 °F 72% 30.17 in 10.0 mi Calm Calm - N/A   Clear
7:15 AM 26.1 °F - 13.1 °F 58% 30.17 in 10.0 mi Calm Calm - N/A   Clear
7:35 AM 27.0 °F - 12.4 °F 54% 30.18 in 10.0 mi Calm Calm - N/A   Clear
7:55 AM 27.9 °F - 13.8 °F 56% 30.19 in 10.0 mi Calm Calm - N/A   Clear
8:15 AM 28.9 °F - 16.7 °F 60% 30.19 in 10.0 mi Calm Calm - N/A   Clear
8:35 AM 30.4 °F - 17.2 °F 58% 30.20 in 10.0 mi Calm Calm - N/A   Clear
8:55 AM 32.0 °F 27.5 °F 18.0 °F 56% 30.20 in 10.0 mi NE 4.6 mph - N/A   Clear
9:15 AM 34.0 °F 29.8 °F 19.0 °F 54% 30.20 in 10.0 mi ENE 4.6 mph - N/A   Clear
9:35 AM 35.6 °F 32.8 °F 19.8 °F 53% 30.21 in 10.0 mi ENE 3.5 mph - N/A   Clear
9:55 AM 37.8 °F 35.3 °F 19.0 °F 47% 30.21 in 10.0 mi East 3.5 mph - N/A   Clear
10:15 AM 40.1 °F - 15.8 °F 37% 30.21 in 10.0 mi Calm Calm - N/A   Clear
10:35 AM 42.3 °F 39.4 °F 14.9 °F 33% 30.21 in 10.0 mi ESE 4.6 mph - N/A   Clear
10:55 AM 43.5 °F 40.1 °F 15.4 °F 32% 30.20 in 10.0 mi East 5.8 mph - N/A   Clear
11:15 AM 45.9 °F 43.6 °F 15.4 °F 30% 30.19 in 10.0 mi East 4.6 mph - N/A   Clear
11:35 AM 47.1 °F - 15.1 °F 28% 30.18 in 10.0 mi ENE 4.6 mph - N/A   Clear
11:55 AM 48.9 °F - 15.4 °F 26% 30.17 in 7.0 mi Calm Calm - N/A   Clear
12:15 PM 49.5 °F - 15.1 °F 25% 30.16 in 10.0 mi ESE 3.5 mph - N/A   Clear
12:35 PM 49.5 °F - 15.3 °F 26% 30.15 in 10.0 mi Calm Calm - N/A   Clear
12:55 PM 50.7 °F - 16.2 °F 25% 30.13 in 10.0 mi Calm Calm - N/A   Clear
1:15 PM 50.5 °F - 16.5 °F 26% 30.13 in 10.0 mi Calm Calm - N/A   Clear
1:35 PM 51.8 °F - 17.1 °F 25% 30.12 in 10.0 mi Calm Calm - N/A   Clear
1:55 PM 53.2 °F - 17.1 °F 24% 30.11 in 10.0 mi Calm Calm - N/A   Clear
2:15 PM 53.8 °F - 18.0 °F 24% 30.10 in 10.0 mi Calm Calm - N/A   Clear
2:35 PM 53.8 °F - 18.1 °F 25% 30.10 in 10.0 mi Calm Calm - N/A   Clear
2:55 PM 54.1 °F - 18.0 °F 24% 30.10 in 10.0 mi Calm Calm - N/A   Clear
3:15 PM 54.5 °F - 18.5 °F 24% 30.09 in 10.0 mi Calm Calm - N/A   Clear
3:35 PM 53.6 °F - 18.5 °F 25% 30.10 in 10.0 mi Calm Calm - N/A   Clear
3:55 PM 53.1 °F - 18.7 °F 26% 30.09 in 10.0 mi Calm Calm - N/A   Clear
4:15 PM 52.7 °F - 19.9 °F 28% 30.10 in 7.0 mi Calm Calm - N/A   Clear
4:35 PM 52.3 °F - 20.5 °F 29% 30.10 in 10.0 mi Calm Calm - N/A   Clear
4:55 PM 51.8 °F - 20.3 °F 29% 30.10 in 10.0 mi Calm Calm - N/A   Clear
5:15 PM 51.1 °F - 21.0 °F 31% 30.11 in 10.0 mi Calm Calm - N/A   Clear
5:35 PM 50.5 °F - 21.0 °F 31% 30.11 in 10.0 mi NNE 4.6 mph - N/A   Clear
5:55 PM 49.5 °F - 21.4 °F 33% 30.12 in 10.0 mi Calm Calm - N/A   Clear
6:15 PM 48.7 °F - 21.0 °F 34% 30.11 in 10.0 mi Calm Calm - N/A   Clear
6:35 PM 48.4 °F - 20.8 °F 34% 30.12 in 10.0 mi Calm Calm - N/A   Clear
6:55 PM 48.0 °F - 20.7 °F 34% 30.12 in 10.0 mi Calm Calm - N/A   Clear
7:15 PM 47.5 °F - 20.3 °F 34% 30.13 in 10.0 mi Calm Calm - N/A   Clear
7:35 PM 44.6 °F - 21.2 °F 39% 30.13 in 10.0 mi Calm Calm - N/A   Clear
7:55 PM 44.8 °F - 22.1 °F 41% 30.14 in 10.0 mi Calm Calm - N/A   Clear
8:15 PM 44.6 °F - 22.1 °F 41% 30.15 in 10.0 mi Calm Calm - N/A   Clear
8:35 PM 44.6 °F - 22.1 °F 41% 30.16 in 10.0 mi Calm Calm - N/A   Clear
8:55 PM 45.0 °F 41.8 °F 21.4 °F 39% 30.16 in 10.0 mi North 5.8 mph - N/A   Clear
9:15 PM 45.5 °F 41.8 °F 20.3 °F 37% 30.17 in 10.0 mi North 6.9 mph - N/A   Clear
9:35 PM 44.8 °F 40.4 °F 20.3 °F 38% 30.17 in 10.0 mi North 8.1 mph - N/A   Clear
9:55 PM 44.1 °F 39.0 °F 21.4 °F 41% 30.18 in 10.0 mi North 9.2 mph - N/A   Clear
10:15 PM 43.7 °F 39.1 °F 21.7 °F 42% 30.18 in 10.0 mi North 8.1 mph - N/A   Clear
10:35 PM 43.7 °F 39.7 °F 21.7 °F 42% 30.19 in 10.0 mi North 6.9 mph - N/A   Clear
10:55 PM 43.3 °F 38.6 °F 21.4 °F 42% 30.19 in 10.0 mi North 8.1 mph - N/A   Clear
11:15 PM 43.2 °F 38.4 °F 21.4 °F 42% 30.20 in 10.0 mi North 8.1 mph - N/A   Clear
11:35 PM 43.2 °F 38.4 °F 21.0 °F 41% 30.20 in 10.0 mi North 8.1 mph - N/A   Clear
11:55 PM 42.8 °F 38.0 °F 21.0 °F 42% 30.21 in 10.0 mi North 8.1 mph - N/A   Clear